Regional Weather Roundup
Issued by NWS State College, PA

Home | Current Version | Previous Version | Graphics & Text | Print | Product List | Glossary On
Versions: 1 2 3 4 5 6 7 8 9 10 11 12 13 14 15 16 17 18 19 20 21 22 23 24 25 26 27 28 29 30 31 32 33 34 35 36 37 38 39 40 41 42 43 44 45 46 47 48 49 50
000
ASUS41 KCTP 290210
RWRCTP

REGIONAL WEATHER ROUNDUP
NATIONAL WEATHER SERVICE STATE COLLEGE PA
1000 PM EDT THU APR 28 2016

Note: "fair" indicates few or no clouds below 12,000 feet with no
significant weather and/or obstructions to visibility.

* = STATION THAT DOES NOT REPORT PRECIPITATION /E.G. RAIN...SNOW...ETC/
    THUNDER OR FOG.

PAZ002>004-007>009-013>016-020>023-029>032-290300-
WESTERN PENNSYLVANIA

CITY           SKY/WX    TMP DP  RH WIND       PRES   REMARKS
ERIE           CLOUDY    46  41  82 NE13      29.98F
MEADVILLE      CLOUDY    42  41  96 E9        29.95F
FRANKLIN*      CLOUDY    43  39  87 E8        29.98S
NEW CASTLE     CLOUDY    45  43  93 CALM      29.98R
BEAVER COUNTY  NOT AVBL
BUTLER*        CLOUDY    45  41  87 NE7       29.98R
PITTSBURGH INT DRIZZLE   48  45  89 NE5       29.95R FOG
PITTSBURGH     FOG       48  45  89 N6        29.93R VSB 1/2
INDIANA*       CLOUDY    46  46 100 E7        29.98R FOG
LATROBE        CLOUDY    54  52  94 CALM      29.92
WASHINGTON CO* CLOUDY    50  48  93 N7        29.94R
$$

PAZ004>006-010>012-017>019-024>028-033>037-041-042-045-046-049>053-290300-
CENTRAL PENNSYLVANIA

CITY           SKY/WX    TMP DP  RH WIND       PRES   REMARKS
BRADFORD       CLOUDY    40  38  93 E8        29.99R
DUBOIS         CLOUDY    40  39  97 E7        29.97R FOG
CLEARFIELD     LGT RAIN  42  39  89 NE7       30.00R FOG
JOHNSTOWN      FOG       42  39  89 SE7       29.94R VSB 1/2
ALTOONA        CLOUDY    42  40  92 SE5       30.00R FOG
STATE COLLEGE  LGT RAIN  42  41  98 CALM      30.01R
WILLIAMSPORT   CLOUDY    46  42  86 N5        30.04R
SELINSGROVE    CLOUDY    46  43  89 N3        30.05R
FT INDIANTOWN  NOT AVBL
CAPITAL CITY   CLOUDY    46  42  86 E7        30.04S
HARRISBURG     CLOUDY    45  42  89 E7        30.04S
YORK           CLOUDY    45  43  93 E5        30.04R
$$

PAZ038>040-043-044-047-048-054-055-060>062-067>071-290300-
EASTERN PENNSYLVANIA

CITY           SKY/WX    TMP DP  RH WIND       PRES   REMARKS
SCRANTON       LGT RAIN  45  42  89 CALM      30.03S
MOUNT POCONO   LGT RAIN  43  40  89 CALM      30.01R
ALLENTOWN      CLOUDY    46  43  87 SW3       30.06R
QUAKERTOWN*    CLOUDY    41  41 100 CALM      30.07R
READING        CLOUDY    44  41  89 SE5       30.04F
LANCASTER      CLOUDY    43  43 100 E5        30.05S FOG
COATESVILLE    CLOUDY    43  43 100 E6        30.05S FOG
POTTSTOWN      CLOUDY    42  42 100 CALM      30.07S
BLUE BELL      CLOUDY    41  41 100 CALM      30.06R
DOYLESTOWN     CLOUDY    41  40  96 CALM      30.05S
WILLOW GROVE   NOT AVBL
NORTH PHILA    CLOUDY    45  42  89 CALM      30.08S
PHILADELPHIA   DRIZZLE   45  40  82 NE7       30.07R
$$




USA.gov is the U.S. government's official web portal to all federal, state and local government web resources and services.